Find Starlink 37147

NORAD ID: 68295 Int'l Des: 2026-057 Owner: SPXS Country: US Constellation: starlink operational
LEOCIRCULARRETROGRADE

Live Position

Loading 3D Globe...

About Starlink 37147

Description loading...

Upcoming Passes

Passes for default location (London). Set your location on the main map for personalized predictions.

Altitude History

Loading altitude history...

Two-Line Element Set

1 68295U 26057B 26125.61921625 .00328509 00000-0 21157-2 0 9993
2 68295 97.2854 250.8439 0002234 89.1805 270.9717 15.75233508 7245
Epoch: May 5, 2026 • Age: 10 hours

Current Status

Altitude 351.7 km
Velocity 7.70 km/s
Sub-Earth Point 57.23°N, 149.1°W
Launch Date Mar 20, 2026
Age 0.1 years
Type internet

Technical Details

Classification Payload
Mass 575.00 kg
Dry Mass 530.00 kg
Total Mass 575.00 kg
Length 0.30 m
Diameter 4.10 m
Span 29.00 m
Shape Box + pan
Manufacturer SPXS
Bus Type Starlink V2MO
Phase Status In Orbit
Owner/State SPXS/US

Most Searched